Regional Weather Roundup
Issued by NWS

Home | Current Version | Previous Version | Graphics & Text | Print | Product List | Glossary On
Versions: 1 2 3 4 5 6 7 8 9 10 11 12 13 14 15 16 17 18 19 20 21 22 23 24 25 26 27 28 29 30 31 32 33 34 35 36 37 38 39 40 41 42 43 44 45 46 47 48 49 50
875
ASUS43 KBIS 180510
RWRND

NORTH DAKOTA REGIONAL WEATHER ROUNDUP
NATIONAL WEATHER SERVICE BISMARCK ND
1100 PM CST WED JAN 17 2018

NOTE: "FAIR" INDICATES FEW OR NO CLOUDS BELOW 12,000 FEET WITH NO
SIGNIFICANT WEATHER AND/OR OBSTRUCTIONS TO VISIBILITY.


NDZ001>003-009>011-017-180600-
NORTHWEST NORTH DAKOTA

CITY           SKY/WX    TMP DP  RH WIND       PRES   REMARKS
WILLISTON      CLEAR     23  16  74 SW9       29.94F WCI  13
MINOT          CLEAR     34  21  59 SW17      29.85F
MINOT AFB      CLEAR     29  20  70 W17       29.83F WCI  17
$$

NDZ018>021-031>035-040>046-180600-
SOUTHWEST NORTH DAKOTA

CITY           SKY/WX    TMP DP  RH WIND       PRES   REMARKS
BISMARCK       MOCLDY    30  22  72 W9        29.97F
DICKINSON      CLEAR     28  19  69 W12       29.93F WCI  18
GARRISON         N/A     24  19  81 W7        29.91F WCI  16
HETTINGER ARPT CLEAR     25  18  74 W10       30.00F WCI  15
$$

NDZ004>008-012>016-024-026-027-054-180600-
NORTHEAST NORTH DAKOTA

CITY           SKY/WX    TMP DP  RH WIND       PRES   REMARKS
GRAND FORKS    MOCLDY    34  25  69 SW17      29.81F
GRND FRKS AFB  CLOUDY    34  24  65 W18       29.81F
DEVILS LAKE    FAIR      30  23  75 W17       29.82F WCI  18
$$

NDZ022-023-025-028>030-036>039-047>053-180600-
SOUTHEAST NORTH DAKOTA

CITY           SKY/WX    TMP DP  RH WIND       PRES   REMARKS
FARGO          FAIR      31  23  72 SW18      29.91F WCI  19
JAMESTOWN      PTCLDY    33  23  66 W18       29.90F
$$





USA.gov is the U.S. government's official web portal to all federal, state and local government web resources and services.